Miscellaneous Local Product
Issued by NWS Hastings, NE

Home | Current Version | Previous Version | Graphics & Text | Print | Product List | Glossary On
Versions: 1 2 3 4 5 6 7 8 9 10 11 12 13 14 15 16 17 18 19 20 21 22 23 24 25 26 27 28 29 30 31 32 33 34 35 36 37 38 39 40 41 42 43 44 45 46 47 48 49 50
168
AXUS43 KGID 180802
MISGRI

GID CWA HOURLY WEATHER ROUNDUP
NATIONAL WEATHER SERVICE HASTINGS NE
300 AM CDT WED OCT 18 2017

NOTE: "FAIR" INDICATES FEW OR NO CLOUDS BELOW 12,000 FEET WITH NO
SIGNIFICANT WEATHER AND/OR OBSTRUCTIONS TO VISIBILITY.

...SOUTH CENTRAL NEBRASKA...

CITY           SKY/WX    TMP DP  RH WIND       PRES   REMARKS
GRAND ISLAND   CLEAR     55  45  68 S13       29.92S
HASTINGS       CLEAR     52  42  69 S8        29.94S
KEARNEY        CLEAR     52  41  66 SW12      29.92F
ORD            CLEAR     45  36  70 CALM      29.87F
YORK           CLEAR     50  46  87 S9        29.94F
AURORA         CLEAR     51  44  77 S8        29.92F
LEXINGTON      CLEAR     58  39  48 SW12      29.92S
HOLDREGE       CLEAR     51  41  69 SW8       29.93F
HEBRON         CLEAR     54  46  72 S3        29.97R

...NEBRASKA PANHANDLE...

CITY           SKY/WX    TMP DP  RH WIND       PRES   REMARKS
CHADRON        CLOUDY    58  18  21 SW13      29.83S
ALLIANCE       CLOUDY    41  24  51 CALM      29.91S
SCOTTSBLUFF    CLOUDY    40  28  62 NE5       29.94S
SIDNEY         CLOUDY    44  24  45 W10       29.98F

...WESTERN AND NORTH CENTRAL NEBRASKA...

CITY           SKY/WX    TMP DP  RH WIND       PRES   REMARKS
VALENTINE      CLOUDY    45  30  55 W7        29.81F
AINSWORTH      CLOUDY    55  33  44 SW13      29.82F
ONEILL         CLEAR     51  40  66 SW3       29.84F
BROKEN BOW     CLOUDY    50  36  58 CALM      29.89F
IMPERIAL       CLOUDY    44  28  53 W7        29.95F
NORTH PLATTE   CLOUDY    45  35  68 NW7       29.91F
MCCOOK         CLEAR     49  38  65 SW6       29.94F

...EASTERN NEBRASKA...

CITY           SKY/WX    TMP DP  RH WIND       PRES   REMARKS
NORFOLK        CLEAR     51  44  77 CALM      29.88F
SO SIOUX CITY  CLEAR     44  43  96 E9        29.89F
TEKAMAH        CLEAR     47  44  90 SE7       29.92F
COLUMBUS       CLEAR     54  45  71 S10       29.92F
ALBION         CLEAR     50  43  79 SE5       29.89F
OMAHA EPPLEY   CLEAR     51  45  79 SE12      29.96S
OFFUTT AFB     CLEAR     42  41  95 SE3       29.96S
MILLARD        CLEAR     53  47  82 SE5       29.96S
LINCOLN        CLEAR     52  46  80 S9        29.96F
NEBRASKA CITY  CLEAR     52  48  86 S9        29.99S
BEATRICE       CLEAR     55  46  73 S10       29.98F
FALLS CITY     CLEAR     53  46  77 S12       30.01S

...NORTHERN KANSAS...

CITY           SKY/WX    TMP DP  RH WIND       PRES   REMARKS
GOODLAND       CLOUDY    53  37  54 SW13      29.99S
HILL CITY      CLEAR     52  42  69 SW8       29.96F
NORTON         SUNNY     50  37  62 SW10      29.93F
PHILLIPSBURG   CLEAR     52  41  66 CALM      29.95S
SMITH CENTER   CLOUDY    45  39  81 E5        29.96F
HAYS           CLEAR     50  41  71 S8        29.97F
RUSSELL        CLEAR     53  44  71 S12       29.96F
CONCORDIA      CLEAR     54  45  71 S14       29.97F
SALINA         CLEAR     55  47  74 S10       30.00F
TOPEKA         CLEAR     55  47  74 S8        30.05F



USA.gov is the U.S. government's official web portal to all federal, state and local government web resources and services.